Terrell, TX

4:20 AM CST on January 22, 2018 (GMT -0600)
Terrell Municipal

Weather History for KTRL - November, 2013

Change the Weather History Date:

Wednesday, November 20, 2013

  Actual Average (KGVT) Record (KGVT)
Temperature  
Mean Temperature 54 °F -  
Max Temperature 64 °F 61 °F 82 °F (2011)
Min Temperature 45 °F 47 °F 28 °F (2016)
Degree Days  
Heating Degree Days 10    
Growing Degree Days 4 (Base 50)    
Moisture  
Dew Point 39 °F    
Average Humidity 49    
Maximum Humidity 62    
Minimum Humidity 36    
Precipitation  
Precipitation 0.00 in - - ()
Sea Level Pressure  
Sea Level Pressure 30.00 in    
Wind  
Wind Speed 8 mph (SE)    
Max Wind Speed 14 mph    
Max Gust Speed -    
Visibility 10 miles    
Events      
Averages and records for this station are not official NWS values.
T = Trace of Precipitation, MM = Missing Value Source: NWS Daily Summary

Daily Weather History Graph

Daily Weather History Graph

Search for Another Location

Airport or City:

Trip Planner

Search our weather history database for the weather conditions in past years. The results will help you decide how hot, cold, wet, or windy it might be!

Date:

Astronomy

Nov. 20, 2013 Rise Set
Actual Time 6:59 AM CST 5:21 PM CST
Civil Twilight 6:33 AM CST 5:47 PM CST
Nautical Twilight 6:03 AM CST 6:17 PM CST
Astronomical Twilight 5:34 AM CST 6:47 PM CST
Moon 8:05 PM CST (11/20) 9:25 AM CST (11/20)
Length of Visible Light 11h 14m
Length of Day
10h 21m
Waning Gibbous, 91% of the Moon is Illuminated
Nov 20
Waning Gibbous
Nov 25
Last Quarter
Dec 2
New
Dec 9
First Quarter
Dec 17
Full

Hourly Weather History & Observations

Time (CST) Temp. Windchill Dew Point Humidity Pressure Visibility Wind Dir Wind Speed Gust Speed Precip Events Conditions
12:53 AM 54.0 °F - 30.0 °F 40% 30.04 in 10.0 mi SE 6.9 mph - N/A   Clear
1:53 AM 51.1 °F - 30.0 °F 44% 30.04 in 10.0 mi ESE 5.8 mph - N/A   Clear
2:53 AM 50.0 °F - 28.9 °F 44% 30.04 in 10.0 mi ESE 4.6 mph - N/A   Clear
3:53 AM 48.9 °F - 28.9 °F 46% 30.04 in 10.0 mi ESE 5.8 mph - N/A   Clear
4:53 AM 46.9 °F - 30.0 °F 52% 30.03 in 10.0 mi SE 4.6 mph - N/A   Clear
5:53 AM 46.9 °F - 30.0 °F 52% 30.04 in 10.0 mi SE 4.6 mph - N/A   Clear
6:53 AM 45.0 °F 41.8 °F 32.0 °F 60% 30.04 in 10.0 mi SE 5.8 mph - N/A   Clear
7:53 AM 48.0 °F - 32.0 °F 54% 30.04 in 10.0 mi SE 5.8 mph - N/A   Clear
8:53 AM 53.1 °F - 30.9 °F 43% 30.05 in 10.0 mi SSE 11.5 mph - N/A   Partly Cloudy
9:44 AM 57.2 °F - 30.2 °F 36% 30.06 in 10.0 mi SSE 13.8 mph - N/A   Mostly Cloudy
9:53 AM 57.0 °F - 30.9 °F 37% 30.04 in 10.0 mi SSE 12.7 mph - N/A   Overcast
10:53 AM 57.9 °F - 32.0 °F 37% 30.03 in 10.0 mi SE 9.2 mph - N/A   Overcast
11:11 AM 59.0 °F - 33.8 °F 39% 30.03 in 10.0 mi SE 11.5 mph - N/A   Overcast
11:53 AM 60.1 °F - 36.0 °F 41% 30.01 in 10.0 mi South 9.2 mph - N/A   Overcast
1:53 PM 64.9 °F - 43.0 °F 45% 29.95 in 10.0 mi SSE 11.5 mph - N/A   Overcast
2:53 PM 64.9 °F - 44.1 °F 47% 29.94 in 10.0 mi SSE 13.8 mph - N/A   Overcast
3:53 PM 64.0 °F - 45.0 °F 50% 29.95 in 10.0 mi SE 8.1 mph - N/A   Overcast
4:53 PM 63.0 °F - 45.0 °F 52% 29.95 in 10.0 mi SE 10.4 mph - N/A   Overcast
5:53 PM 62.1 °F - 46.0 °F 56% 29.96 in 10.0 mi SSE 10.4 mph - N/A   Overcast
6:22 PM 62.1 °F - 46.0 °F 56% 29.97 in 10.0 mi SSE 9.2 mph - N/A   Overcast
6:53 PM 62.1 °F - 45.0 °F 53% 29.97 in 10.0 mi SSE 8.1 mph - N/A   Overcast
7:22 PM 62.1 °F - 45.0 °F 53% 29.97 in 10.0 mi SSE 11.5 mph - N/A   Overcast
7:53 PM 63.0 °F - 44.1 °F 50% 29.98 in 10.0 mi SSE 11.5 mph - N/A   Overcast
8:53 PM 63.0 °F - 44.1 °F 50% 29.98 in 10.0 mi SE 9.2 mph - N/A   Overcast
9:13 PM 62.1 °F - 45.0 °F 53% 29.97 in 10.0 mi SE 10.4 mph - N/A   Mostly Cloudy
9:20 PM 62.1 °F - 45.0 °F 53% 29.98 in 10.0 mi SE 11.5 mph - N/A   Mostly Cloudy
9:53 PM 62.1 °F - 45.0 °F 53% 29.98 in 10.0 mi SSE 10.4 mph - N/A   Overcast
10:14 PM 63.0 °F - 46.0 °F 54% 29.98 in 10.0 mi SSE 9.2 mph - N/A   Overcast
10:53 PM 62.1 °F - 46.9 °F 58% 29.99 in 10.0 mi SSE 8.1 mph - N/A   Overcast
11:25 PM 63.0 °F - 46.9 °F 56% 29.98 in 10.0 mi SSE 9.2 mph - N/A   Overcast
11:53 PM 62.1 °F - 48.9 °F 62% 29.99 in 10.0 mi SSE 8.1 mph - N/A   Overcast